Regional Weather Roundup
Issued by NWS

Home | Current Version | Previous Version | Graphics & Text | Print | Product List | Glossary Off
Versions: 1 2 3 4 5 6 7 8 9 10 11 12 13 14 15 16 17 18 19 20 21 22 23 24 25 26 27 28 29 30 31 32 33 34 35 36 37 38 39 40 41 42 43 44 45 46 47 48 49 50

000
ASUS43 KMKX 211611
RWRWI

WISCONSIN REGIONAL WEATHER ROUNDUP
NATIONAL WEATHER SERVICE MILWAUKEE/SULLIVAN WI
1100 AM CDT SUN SEP 21 2014

NOTE: "FAIR" INDICATES FEW OR NO CLOUDS BELOW 12,000 FEET WITH NO
SIGNIFICANT WEATHER AND/OR OBSTRUCTIONS TO VISIBILITY.

WIZ001-002-006>008-014>016-023>028-211700-
NORTHWEST WISCONSIN

CITY           SKY/WX    TMP DP  RH WIND       PRES   REMARKS
SUPERIOR ARPT  MOSUNNY   56  45  64 N14       30.09R
ASHLAND        CLOUDY    52  43  71 N15       30.09R
HAYWARD        PTSUNNY   53  44  71 N10G20    30.07R
SIREN          PTSUNNY   55  47  75 N10G20    30.10R
RICE LAKE      PTSUNNY   57  46  66 NW12G17   30.07R
LADYSMITH      PTSUNNY   56  46  68 NW12      30.05R
EAU CLAIRE     MOSUNNY   58  45  62 N13G23    30.05R
MENOMONIE      PTSUNNY   59  44  57 N17G26    30.06R
NEW RICHMOND   PTSUNNY   57  48  73 NW10      30.10R
OSCEOLA        CLOUDY    57  49  73 NW8G16    30.13R
$$

WIZ003>005-009-010-017-018-211700-
NORTH CENTRAL WISCONSIN

CITY           SKY/WX    TMP DP  RH WIND       PRES   REMARKS
WOODRUFF       CLOUDY    49  42  76 N14G23    30.01R
RHINELANDER    CLOUDY    47  40  76 N8G22     30.00R
EAGLE RIVER    CLOUDY    46  38  73 N14G22    29.99R
LAND O LAKES   CLOUDY    45  39  80 N12G24    30.01R
PHILLIPS       CLOUDY    50  44  79 N9G16     30.02R
TOMAHAWK       CLOUDY    49  42  77 NW12G23   30.01R
MEDFORD        CLOUDY    52  44  74 N15G23    30.00R
MERRILL        CLOUDY    51  43  73 N22G29    29.99R
$$

WIZ029-030-035-036-043>047-211700-
CENTRAL WISCONSIN

CITY           SKY/WX    TMP DP  RH WIND       PRES   REMARKS
WAUSAU         PTSUNNY   53  43  68 N17G28    29.96R
MOSINEE        CLOUDY    54  45  71 N18G31    29.98R
MARSHFIELD     PTSUNNY   57  45  64 N21G31    29.99R
STEVENS POINT  PTSUNNY   54  44  68 N23G31    29.96R
WAUPACA        PTSUNNY   59  50  73 N13G23    29.93R
WAUTOMA        MOSUNNY   62  52  70 N14G22    29.93R
WISC RAPIDS    MOSUNNY   58  46  64 N20G33    29.98R
CAMP DOUGLAS   PTSUNNY   59  55  88 N9G22     29.98R
$$

WIZ011>013-019>022-031-037>040-048>050-211700-
NORTHEAST WISCONSIN

CITY           SKY/WX    TMP DP  RH WIND       PRES   REMARKS
ANTIGO         CLOUDY    50  42  74 N23G33    29.96R
STURGEON BAY   CLOUDY    55  46  71 N25G31    29.87R
GREEN BAY      PTSUNNY   57  50  77 N17G28    29.89R
MANITOWOC      CLOUDY    58  51  78 N21G29    29.85R
APPLETON       PTSUNNY   57  54  88 NW15      29.90R
CLINTONVILLE   CLOUDY    54  46  76 N16G28    29.92R
OSHKOSH        CLOUDY    60  53  77 N14G23    29.88R
$$

WIZ032>034-041-042-053>061-211700-
SOUTHWEST WISCONSIN

CITY           SKY/WX    TMP DP  RH WIND       PRES   REMARKS
LA CROSSE      CLOUDY    61  50  67 N18G26    30.02R
SPARTA         CLOUDY    57  50  76 NW14      30.00R
VIROQUA        CLOUDY    56  54  95 N10       30.01R
BOSCOBEL       CLOUDY    60  51  72 NW6       30.00R
PRAIRIE DU CHI CLOUDY    58  49  72 NW9G21    30.02R
PLATTEVILLE    CLOUDY    57  51  81 NW9G20    30.00R
$$

WIZ056-057-062-063-064-067-068-211700-
SOUTH CENTRAL WISCONSIN

CITY           SKY/WX    TMP DP  RH WIND       PRES   REMARKS
BARABOO/DELLS  PTSUNNY   60  50  70 NW14G20   29.94R
LONE ROCK      CLOUDY    64  51  62 NW10G21   29.97R
WATERTOWN      PTSUNNY   58  56  92 NW13G20   29.89R
MADISON        PTSUNNY   62  52  69 N12G25    29.92R
MIDDLETON      CLOUDY    62  51  66 NW9G18    29.94R
MONROE         CLOUDY    59  50  72 NW17G24   29.94R
JANESVILLE     CLOUDY    59  52  77 NW16      29.91R
$$

WIZ051-052-058>065-066-070>072-211700-
SOUTHEAST WISCONSIN

CITY           SKY/WX    TMP DP  RH WIND       PRES   REMARKS
MILWAUKEE      LGT RAIN  58  53  84 NW13G21   29.86R
WAUKESHA       CLOUDY    54  52  94 NW14G22   29.89R
MILWAUKEE/TIMM CLOUDY    57  52  82 NW17      29.88R
RACINE         CLOUDY    60  52  74 W14       29.86R
BURLINGTON     CLOUDY    56  52  84 NW13G18   29.89R
KENOSHA        PTSUNNY   60  53  77 NW22G31   29.86R
FOND DU LAC    CLOUDY    58  51  78 N18G26    29.90R
SHEBOYGAN      PTSUNNY   59  50  72 N23G31    29.86R
WEST BEND      CLOUDY    57  50  77 NW15G22   29.87R
JUNEAU         CLOUDY    57  53  85 NW10G16   29.91R
$$

LSZ147-162-211700-
LAKE SUPERIOR

STATION/POSITION TIME  TEMP    WIND        PRES    WAVE
                       AIR SEA DIR/SP/G            HT/PER
                 (UTC) (F)     (DEG/KT/KT) (MB)    (FT/S)
W MID LAKE BUOY  1550   46 46  350/ 14/ 16 1018.2R   3/ 5
DEVILS ISLAND    1600   47      30/ 17/ 18 1019.5R
PORT WING        1500   52      30/ 12/ 14 1018.6
SAXON HARBOR     1500   51      30/ 15/ 19 1017.6R
$$

LMZ867-665-643>646-211700-
LAKE MICHIGAN

STATION/POSITION TIME  TEMP    WIND        PRES    WAVE
                       AIR SEA DIR/SP/G            HT/PER
                 (UTC) (F)     (DEG/KT/KT) (MB)    (FT/S)
N MID LAKE BUOY  1550   53 58  350/ 27/ 33 1008.9R   6/ 5
NORTHPORT PIER   1505   54     340/ 26/ 27 1009.8R
SISTER BAY       1512           10/ 27/ 36   N/A
KEWAUNEE LAKESHO 1500   54     340/ 13/ 23 1008.9R
SHEBOYGAN LAKESH 1600   57 51  350/ 22/ 25 1011.1R
PORT WASHINGTON  1520   60     340/ 10/ 18 1010.8R
ATWATER BUOY     1600   57     340/ 14/ 16 1012.1R
MILWAUKEE LAKESH 1500   60     310/ 11/ 16   N/A
S MID LAKE BUOY  1550   58 63  310/ 23/ 29 1008.8R   6/ 6
KENOSHA   LAKESH 1600   60     310/ 18/ 25 1010.5R
$$

TC  - TEMPERATURE IN CELSIUS
VSB - VISIBILITY IN STATUTE MILES
WCI - WIND CHILL INDEX
HX  - HEAT INDEX



USA.gov is the U.S. government's official web portal to all federal, state and local government web resources and services.